Satellite-Ground Cal/Val Site Overpasses Predictions

Prediction of Satellite NPP Overpassing Cal/Val Site: Antarctic Dome C

Ground Cal/Val Site Location: Latitude: -75.10, Longitude: 123.35; Satellite-Ground Site NADIR distance within 100 km.

Table of predicted overpasses for the next 14.0 days since TLE Epoch: 10/22/2022
Interval Starting Time Ending Time Minimum Distance Time Minimum Distance (km)
1 10/23/2022 07:32:29 10/23/2022 07:32:58 10/23/2022 07:32:43 3.17
2 10/26/2022 14:55:55 10/26/2022 14:56:23 10/26/2022 14:56:09 24.38
3 10/27/2022 14:37:12 10/27/2022 14:37:28 10/27/2022 14:37:20 82.75
4 10/28/2022 07:38:45 10/28/2022 07:39:12 10/28/2022 07:38:59 36.05
5 10/29/2022 07:19:58 10/29/2022 07:20:18 10/29/2022 07:20:08 74.01
6 10/31/2022 15:02:13 10/31/2022 15:02:36 10/31/2022 15:02:24 61.13
7 11/01/2022 14:43:22 11/01/2022 14:43:47 11/01/2022 14:43:35 48.22
8 11/02/2022 07:45:02 11/02/2022 07:45:23 11/02/2022 07:45:12 70.87
